1483750801.15,45460,3.75,72390.3,-29.65,-61.11,-61.53,0,*6D
1483750802.44,45461,3.75,72378.3,-29.65,-60.77,-61.27,0,*6E
1483750803.75,45462,3.75,72382.8,-29.65,-60.61,-61.03,0,*6C
1483750805.04,45463,3.75,72374.3,-29.65,-60.77,-61.11,0,*69
1483750806.31,45464,3.75,72376.3,-29.71,-61.11,-61.19,0,*62
1483750807.58,45465,3.75,72368.0,-29.71,-60.93,-61.11,0,*60
1483750808.88,45466,3.75,72366.5,-29.65,-60.85,-61.27,0,*64
1483750810.17,45467,3.75,72378.3,-29.65,-61.35,-61.53,0,*6C
1483750811.47,45468,3.75,72372.8,-29.65,-60.85,-61.11,0,*6F
1483750812.77,45469,3.75,72368.5,-29.65,-60.61,-61.03,0,*67
1483750814.07,45470,3.75,72368.5,-29.65,-61.03,-61.27,0,*6C
1483750815.35,45471,3.75,72370.3,-29.65,-61.03,-61.35,0,*6E
1483750816.64,45472,3.75,72368.0,-29.63,-60.93,-61.27,0,*60
1483750817.95,45473,3.75,72382.0,-29.65,-61.11,-61.53,0,*6F
1483750819.26,45474,3.75,72366.5,-29.65,-61.11,-61.53,0,*68
1483750820.53,45475,3.75,72368.3,-29.63,-61.19,-61.43,0,*66
1483750821.82,45476,3.75,72372.3,-29.63,-61.03,-61.27,0,*6C
1483750823.1,45477,3.75,72370.5,-29.65,-61.11,-61.35,0,*6B
1483750824.39,45478,3.75,72368.5,-29.63,-61.19,-61.27,0,*69
1483750825.68,45479,3.75,72364.8,-29.63,-61.03,-61.27,0,*63
1483750826.96,45480,3.75,72370.5,-29.65,-61.03,-61.35,0,*60
1483750828.27,45481,3.75,72366.5,-29.65,-61.11,-61.61,0,*63
1483750829.52,45482,3.75,72364.8,-29.65,-61.35,-61.77,0,*61
1483750830.8,45483,3.75,72378.5,-29.65,-61.35,-61.53,0,*66
1483750832.09,45484,3.75,72372.0,-29.65,-61.35,-61.61,0,*60
1483750833.38,45485,3.75,72374.8,-29.63,-60.93,-61.27,0,*68
1483750834.68,45486,3.75,72378.0,-29.63,-61.19,-61.53,0,*6B
1483750835.99,45487,3.75,72374.5,-29.65,-61.27,-61.61,0,*60
1483750837.26,45488,3.75,72372.0,-29.63,-61.19,-61.43,0,*64
1483750838.56,45489,3.75,72382.8,-29.63,-61.03,-61.19,0,*61
1483750839.86,45490,3.75,72374.0,-29.63,-60.53,-61.03,0,*66
1483750841.15,45491,3.75,72376.3,-29.63,-61.03,-61.03,0,*63
1483750842.45,45492,3.75,72378.8,-29.65,-60.85,-61.27,0,*6F
1483750843.73,45493,3.75,72378.8,-29.63,-61.03,-61.43,0,*65
1483750845.0,45494,3.75,72378.3,-29.65,-61.03,-61.35,0,*65
1483750846.31,45495,3.75,72382.5,-29.63,-61.19,-61.53,0,*69
1483750847.62,45496,3.75,72388.5,-29.65,-61.11,-61.53,0,*64
1483750848.93,45497,3.75,72378.5,-29.65,-61.27,-61.53,0,*60
1483750850.22,45498,3.75,72378.3,-29.63,-61.03,-61.27,0,*6C
1483750851.49,45499,3.75,72378.5,-29.63,-60.93,-61.43,0,*67
1483750852.77,45500,3.75,72382.3,-29.65,-61.11,-61.35,0,*6A
1483750854.08,45501,3.75,72378.0,-29.65,-61.11,-61.53,0,*6B
1483750855.36,45502,3.75,72376.0,-29.65,-61.53,-61.85,0,*65
1483750856.65,45503,3.75,72382.8,-29.65,-61.53,-61.85,0,*64
1483750857.94,45504,3.75,72366.8,-29.65,-61.35,-61.53,0,*68
1483750859.25,45505,3.75,72376.3,-29.65,-61.27,-61.53,0,*6A
1483750860.52,45506,3.75,72370.8,-29.65,-61.27,-61.77,0,*6F
1483750861.8,45507,3.75,72372.5,-29.65,-61.53,-61.77,0,*6D
1483750863.08,45508,3.75,72372.3,-29.65,-61.27,-61.85,0,*6C
1483750864.37,45509,3.75,72378.8,-29.65,-61.35,-61.61,0,*64
1483750865.67,45510,3.75,72376.3,-29.63,-61.27,-61.53,0,*68
1483750866.96,45511,3.75,72376.5,-29.65,-61.53,-61.85,0,*67
1483750868.24,45512,3.75,72378.0,-29.65,-61.61,-61.85,0,*65
1483750869.53,45513,3.75,72382.3,-29.65,-61.53,-61.85,0,*65
1483750870.81,45514,3.75,72370.5,-29.65,-61.53,-61.85,0,*62
1483750872.07,45515,3.75,72374.8,-29.65,-61.77,-61.85,0,*65
1483750873.34,45516,3.75,72370.5,-29.65,-61.77,-62.11,0,*68
1483750874.65,45517,3.75,72364.5,-29.65,-61.61,-62.03,0,*6D
1483750875.91,45518,3.75,72376.0,-29.65,-61.77,-61.85,0,*68
1483750877.19,45519,3.75,72372.3,-29.65,-61.53,-61.77,0,*62
1483750878.5,45520,3.75,72378.0,-29.65,-61.53,-62.03,0,*68
1483750879.78,45521,3.75,72376.0,-29.71,-61.61,-62.19,0,*66
1483750881.06,45522,3.75,72366.3,-29.71,-61.61,-62.11,0,*6D
1483750882.31,45523,3.75,72378.8,-29.71,-61.61,-61.85,0,*62
1483750883.62,45524,3.75,72378.5,-29.73,-61.61,-61.95,0,*66
1483750884.91,45525,3.75,72378.8,-29.73,-61.61,-61.69,0,*64
1483750886.19,45526,3.75,72370.5,-29.73,-60.93,-61.35,0,*62
1483750887.44,45527,3.75,72372.3,-29.71,-61.35,-61.61,0,*6D
1483750888.68,45528,3.75,72372.5,-29.71,-61.43,-61.85,0,*69
1483750889.91,45529,3.75,72374.3,-29.71,-61.43,-61.85,0,*68
1483750891.22,45530,3.75,72374.0,-29.73,-61.61,-61.95,0,*63
1483750892.45,45531,3.75,72376.3,-29.71,-61.43,-61.69,0,*63
1483750893.71,45532,3.75,72382.0,-29.71,-61.61,-61.85,0,*62
1483750894.97,45533,3.75,72370.8,-29.71,-61.35,-61.61,0,*68
1483750896.2,45534,3.75,72370.3,-29.71,-61.43,-61.69,0,*66
1483750897.43,45535,3.75,72364.5,-29.71,-61.35,-61.69,0,*66
1483750898.66,45536,3.75,72380.8,-29.71,-61.43,-61.85,0,*66
1483750899.9,45537,3.75,72376.3,-29.71,-61.43,-61.85,0,*67
1483750901.15,45538,3.75,72370.3,-29.71,-61.69,-62.11,0,*6E
1483750902.38,45539,3.75,72372.3,-29.71,-61.35,-61.85,0,*68
1483750903.69,45540,3.75,72368.0,-29.73,-61.61,-61.95,0,*64
1483750904.92,45541,3.75,72372.0,-29.71,-61.69,-61.85,0,*6E
1483750906.17,45542,3.75,72372.3,-29.71,-61.11,-61.35,0,*69
1483750907.42,45543,3.75,72372.0,-29.71,-61.19,-61.43,0,*61
1483750908.7,45544,3.75,72372.3,-29.73,-61.11,-61.43,0,*6C
1483750909.96,45545,3.75,72382.5,-29.73,-61.35,-61.69,0,*63
1483750911.24,45546,3.75,72376.8,-29.71,-61.61,-61.95,0,*60
1483750912.47,45547,3.75,72370.5,-29.71,-61.43,-61.69,0,*62
1483750913.73,45548,3.75,72368.3,-29.71,-61.61,-61.85,0,*6F
1483750915.01,45549,3.75,72372.8,-29.71,-61.61,-62.11,0,*60
1483750916.24,45550,3.75,72376.0,-29.71,-61.43,-61.85,0,*66
1483750917.5,45551,3.75,72368.0,-29.71,-61.69,-61.95,0,*6E
1483750918.73,45552,3.75,72366.0,-29.71,-61.35,-61.85,0,*65
1483750919.99,45553,3.75,72368.0,-29.71,-61.43,-61.95,0,*64
1483750921.22,45554,3.75,72366.5,-29.71,-61.43,-61.85,0,*62
1483750922.48,45555,3.75,72378.5,-29.71,-61.69,-61.95,0,*6A
1483750923.71,45556,3.75,72370.8,-29.71,-61.43,-61.85,0,*60
1483750924.97,45557,3.75,72368.5,-29.71,-61.43,-61.61,0,*6B
1483750926.25,45558,3.75,72368.0,-29.71,-61.19,-61.61,0,*6B
1483750927.56,45559,3.75,72374.8,-29.73,-61.61,-61.95,0,*6C
1483750928.79,45560,3.75,72380.5,-29.71,-61.43,-61.85,0,*65
1483750930.02,45561,3.75,72372.3,-29.71,-61.35,-61.69,0,*67
1483750931.3,45562,3.75,72362.8,-29.71,-61.19,-61.61,0,*62
1483750932.53,45563,3.75,72374.5,-29.71,-61.43,-61.85,0,*66
1483750933.79,45564,3.75,72372.0,-29.71,-61.43,-61.95,0,*60
1483750935.04,45565,3.75,72368.8,-29.71,-61.69,-62.11,0,*66
1483750936.32,45566,3.75,72364.3,-29.73,-61.69,-61.95,0,*68
1483750937.58,45567,3.75,72366.3,-29.71,-61.69,-62.11,0,*64
1483750938.86,45568,3.75,72372.0,-29.73,-61.43,-61.95,0,*6E
1483750940.12,45569,3.75,72370.3,-29.71,-61.61,-61.85,0,*6C
1483750941.4,45570,3.75,72370.3,-29.71,-61.61,-61.95,0,*65
1483750942.68,45571,3.75,72374.8,-29.73,-61.69,-61.95,0,*6E
1483750943.97,45572,3.75,72376.3,-29.75,-61.19,-61.53,0,*66
1483750945.23,45573,3.75,72370.5,-29.73,-61.35,-61.69,0,*66
1483750946.51,45574,3.75,72376.5,-29.73,-61.19,-61.69,0,*6F
1483750947.79,45575,3.75,72374.0,-29.73,-61.11,-61.35,0,*6F
1483750949.07,45576,3.75,72374.3,-29.73,-61.11,-61.35,0,*6C
1483750950.35,45577,3.75,72374.8,-29.75,-61.19,-61.53,0,*63
1483750951.63,45578,3.75,72380.0,-29.73,-61.19,-61.35,0,*6A
1483750952.93,45579,3.75,72380.8,-29.73,-60.69,-61.11,0,*6B
1483750954.21,45580,3.75,72372.3,-29.73,-60.85,-61.35,0,*69
1483750955.46,45581,3.75,72378.5,-29.71,-61.11,-61.43,0,*67
1483750956.71,45582,3.75,72376.5,-29.71,-60.93,-61.35,0,*6E
1483750957.99,45583,3.75,72382.0,-29.73,-61.11,-61.43,0,*67
1483750959.24,45584,3.75,72388.3,-29.71,-61.19,-61.69,0,*62
1483750960.55,45585,3.75,72394.8,-29.73,-61.61,-61.95,0,*6D
1483750961.8,45586,3.75,72390.3,-29.71,-61.19,-61.69,0,*60
1483750963.06,45587,3.75,72376.5,-29.71,-60.85,-61.35,0,*6C
1483750964.31,45588,3.75,72378.5,-29.71,-60.93,-61.43,0,*65
1483750965.6,45589,3.75,72384.0,-29.73,-61.35,-61.61,0,*6B
1483750966.85,45590,3.75,72380.3,-29.71,-61.43,-61.95,0,*6B
1483750968.11,45591,3.75,72380.5,-29.73,-61.35,-61.85,0,*68
1483750969.34,45592,3.75,72384.0,-29.71,-61.43,-61.85,0,*68
1483750970.6,45593,3.75,72372.5,-29.71,-61.35,-61.95,0,*69
1483750971.88,45594,3.75,72374.3,-29.71,-61.19,-61.61,0,*6B
1483750973.11,45595,3.75,72384.0,-29.71,-61.35,-61.69,0,*6C
1483750974.34,45596,3.75,72376.0,-29.71,-61.35,-61.69,0,*6F
1483750975.62,45597,3.75,72368.3,-29.71,-61.61,-61.95,0,*6C
1483750976.9,45598,3.75,72374.8,-29.71,-61.19,-61.61,0,*67
1483750978.15,45599,3.75,72384.8,-29.71,-61.19,-61.69,0,*6E
1483750979.43,45600,3.75,72382.8,-29.71,-61.61,-61.95,0,*61
1483750980.69,45601,3.75,72384.0,-29.73,-61.43,-61.85,0,*63
1483750981.97,45602,3.75,72394.0,-29.71,-61.19,-61.61,0,*67
1483750983.23,45603,3.75,72380.0,-29.73,-61.43,-61.85,0,*61
1483750984.47,45604,3.75,72374.0,-29.71,-61.43,-61.85,0,*64
1483750985.72,45605,3.75,72382.3,-29.71,-61.43,-61.95,0,*64
1483750987.0,45606,3.75,72386.8,-29.71,-61.19,-61.61,0,*63
1483750988.28,45607,3.75,72370.0,-29.71,-60.85,-61.19,0,*69
1483750989.53,45608,3.69,72372.3,-29.71,-61.11,-61.43,0,*65
1483750990.81,45609,3.75,72364.8,-29.71,-61.61,-61.95,0,*68
1483750992.07,45610,3.75,72372.0,-29.73,-61.43,-61.69,0,*61
1483750993.33,45611,3.75,72372.5,-29.71,-61.35,-61.61,0,*6B
1483750994.58,45612,3.75,72378.0,-29.71,-61.19,-61.69,0,*6E
1483750995.86,45613,3.75,72372.3,-29.73,-61.35,-61.95,0,*60
1483750997.1,45614,3.75,72376.5,-29.71,-61.43,-61.85,0,*65
1483750998.36,45615,3.75,72384.5,-29.73,-61.43,-61.85,0,*66
1483750999.62,45616,3.69,72378.8,-29.71,-61.43,-61.95,0,*66
1483751000.92,45617,3.75,72376.3,-29.73,-61.61,-61.95,0,*65
1483751002.16,45618,3.75,72400.0,-29.71,-61.43,-61.85,0,*69
1483751003.44,45619,3.75,72388.5,-29.71,-61.19,-61.61,0,*6D
1483751004.74,45620,3.75,72376.0,-29.73,-61.19,-61.61,0,*65
1483751006.02,45621,3.75,72376.3,-29.71,-61.19,-61.61,0,*66
1483751007.28,45622,3.75,72370.3,-29.73,-61.35,-61.69,0,*61
1483751008.51,45623,3.75,72384.3,-29.71,-61.35,-61.69,0,*62
1483751009.79,45624,3.75,72368.8,-29.71,-61.19,-61.61,0,*63
1483751011.05,45625,3.75,72340.0,-29.73,-61.35,-61.69,0,*66
1483751012.33,45626,3.75,72362.5,-29.73,-60.69,-61.35,0,*64
1483751013.61,45627,3.75,72372.3,-29.73,-60.93,-61.43,0,*61
1483751014.91,45628,3.75,72374.3,-29.73,-61.11,-61.61,0,*65
1483751016.17,45629,3.75,72364.0,-29.73,-61.43,-61.69,0,*6B
1483751017.45,45630,3.75,72362.5,-29.73,-61.19,-61.69,0,*6C
1483751018.7,45631,3.75,72378.0,-29.71,-60.93,-61.35,0,*65
1483751019.95,45632,3.69,72380.5,-29.71,-61.11,-61.43,0,*6C
1483751021.21,45633,3.75,72376.0,-29.71,-61.11,-61.35,0,*6C
1483751022.46,45634,3.75,72384.0,-29.71,-60.93,-61.35,0,*60
1483751023.71,45635,3.75,72374.0,-29.71,-61.35,-61.61,0,*6D
1483751025.02,45636,3.75,72376.0,-29.65,-61.11,-61.61,0,*6D
1483751026.27,45637,3.75,72386.3,-29.71,-61.11,-61.43,0,*69
1483751027.52,45638,3.75,72374.5,-29.71,-60.93,-61.43,0,*6D
1483751028.8,45639,3.69,72386.0,-29.73,-61.11,-61.35,0,*64
1483751030.08,45640,3.75,72394.0,-29.65,-60.85,-61.35,0,*61
1483751031.39,45641,3.75,72386.8,-29.65,-61.11,-61.61,0,*6D
1483751032.67,45642,3.75,72380.5,-29.71,-61.03,-61.53,0,*69
1483751033.92,45643,3.75,72366.5,-29.71,-61.19,-61.69,0,*6A
1483751035.18,45644,3.75,72376.8,-29.71,-60.85,-61.35,0,*60
1483751036.43,45645,3.75,72394.8,-29.71,-60.93,-61.43,0,*67
1483751037.69,45646,3.75,72390.5,-29.71,-61.61,-61.85,0,*62
1483751038.97,45647,3.75,72384.5,-29.71,-61.19,-61.61,0,*66
1483751040.27,45648,3.75,72390.3,-29.65,-60.61,-61.11,0,*65
1483751041.58,45649,3.75,72392.5,-29.65,-61.11,-61.53,0,*64
1483751042.89,45650,3.75,72388.8,-29.65,-61.27,-61.61,0,*68
1483751044.16,45651,3.75,72380.5,-29.63,-61.03,-61.43,0,*69
1483751045.47,45652,3.75,72376.0,-29.65,-61.03,-61.53,0,*6D
1483751046.76,45653,3.75,72366.3,-29.65,-61.03,-61.27,0,*6F
1483751048.07,45654,3.75,72368.8,-29.65,-61.03,-61.53,0,*6B
1483751049.35,45655,3.69,72368.0,-29.65,-61.03,-61.35,0,*6A
1483751050.66,45656,3.69,72368.8,-29.65,-61.11,-61.53,0,*6A
1483751051.94,45657,3.75,72374.8,-29.65,-61.27,-61.35,0,*6E
1483751053.25,45658,3.75,72376.3,-29.65,-61.03,-61.53,0,*67
1483751054.53,45659,3.75,72378.5,-29.65,-61.03,-61.35,0,*66
1483751055.83,45660,3.75,72376.3,-29.65,-61.11,-61.61,0,*6E
1483751057.14,45661,3.75,72370.3,-29.65,-61.53,-62.03,0,*6E
1483751058.45,45662,3.75,72366.8,-29.65,-61.27,-61.61,0,*69
1483751059.75,45663,3.75,72368.0,-29.65,-61.11,-61.61,0,*6D
1483751061.01,45664,3.75,72362.5,-29.65,-61.35,-61.85,0,*66
1483751062.26,45665,3.75,72362.8,-29.65,-61.35,-61.77,0,*6A
1483751063.52,45666,3.75,72358.3,-29.65,-61.35,-61.85,0,*64
1483751064.83,45667,3.75,72364.5,-29.65,-61.03,-61.53,0,*6B
1483751066.06,45668,3.69,72370.0,-29.71,-61.35,-61.69,0,*6D
1483751067.32,45669,3.75,72366.3,-29.71,-61.19,-61.69,0,*62
1483751068.6,45670,3.75,72380.5,-29.71,-61.19,-61.61,0,*62
1483751069.85,45671,3.75,72372.3,-29.71,-61.19,-61.69,0,*6B
1483751071.08,45672,3.75,72382.0,-29.71,-61.35,-61.69,0,*66
1483751072.36,45673,3.69,72380.3,-29.73,-61.19,-61.69,0,*6B
1483751073.59,45674,3.75,72368.0,-29.71,-61.35,-61.85,0,*62
1483751074.84,45675,3.75,72368.0,-29.71,-61.19,-61.69,0,*6F
1483751076.1,45676,3.75,72374.0,-29.71,-61.11,-61.69,0,*64
1483751077.41,45677,3.75,72370.5,-29.65,-61.27,-61.53,0,*6C
1483751078.71,45678,3.75,72362.8,-29.65,-61.27,-61.61,0,*62
1483751080.02,45679,3.75,72380.3,-29.65,-61.27,-61.61,0,*63
1483751081.33,45680,3.75,72364.5,-29.65,-61.27,-61.53,0,*64
1483751082.6,45681,3.75,72374.8,-29.65,-61.27,-61.77,0,*63
1483751083.86,45682,3.75,72372.0,-29.71,-61.35,-61.61,0,*61
1483751085.14,45683,3.75,72364.8,-29.71,-61.19,-61.61,0,*6E
1483751086.39,45684,3.75,72372.8,-29.71,-61.19,-61.69,0,*61
1483751087.64,45685,3.75,72374.3,-29.71,-61.19,-61.69,0,*60
1483751088.87,45686,3.75,72378.0,-29.71,-61.35,-61.85,0,*6F
1483751090.15,45687,3.75,72382.3,-29.71,-61.61,-61.95,0,*6E
1483751091.39,45688,3.69,72368.0,-29.71,-61.35,-61.85,0,*61
1483751092.62,45689,3.69,72370.0,-29.71,-61.43,-61.85,0,*61
1483751093.85,45690,3.75,72378.5,-29.71,-61.43,-61.69,0,*6B
1483751095.11,45691,3.69,72374.0,-29.71,-60.85,-61.35,0,*68
1483751096.37,45692,3.75,72374.3,-29.73,-61.35,-61.69,0,*6A
1483751097.65,45693,3.75,72380.3,-29.71,-60.93,-61.61,0,*6C
1483751098.88,45694,3.69,72366.3,-29.71,-61.35,-61.69,0,*6E
1483751100.13,45695,3.75,72374.3,-29.71,-61.35,-61.95,0,*6C
1483751101.36,45696,3.75,72380.5,-29.71,-61.35,-61.85,0,*6E
1483751102.6,45697,3.75,72380.3,-29.71,-61.43,-61.69,0,*6C
1483751103.83,45698,3.75,72380.0,-29.71,-61.35,-61.85,0,*60
1483751105.11,45699,3.75,72382.8,-29.71,-61.19,-61.61,0,*65
1483751106.34,45700,3.75,72378.3,-29.71,-61.43,-61.85,0,*61
1483751107.6,45701,3.75,72380.3,-29.73,-61.35,-61.69,0,*61
1483751108.88,45702,3.75,72386.5,-29.71,-61.61,-61.95,0,*62
1483751110.16,45703,3.75,72390.8,-29.71,-61.19,-61.61,0,*67
1483751111.41,45704,3.69,72374.0,-29.71,-60.93,-61.35,0,*62
1483751112.69,45705,3.75,72370.0,-29.71,-61.19,-61.61,0,*61
1483751113.94,45706,3.75,72388.5,-29.71,-61.19,-61.69,0,*6A
1483751115.19,45707,3.75,72378.0,-29.71,-61.11,-61.43,0,*6B
1483751116.47,45708,3.75,72370.0,-29.71,-61.19,-61.61,0,*6C
1483751117.72,45709,3.75,72376.3,-29.71,-61.11,-61.43,0,*65
1483751118.97,45710,3.75,72376.5,-29.71,-61.19,-61.69,0,*6D
1483751120.21,45711,3.69,72376.3,-29.71,-61.43,-61.69,0,*63
1483751121.46,45712,3.69,72376.8,-29.71,-61.35,-61.61,0,*69
1483751122.74,45713,3.69,72370.3,-29.71,-61.19,-61.61,0,*66
1483751124.02,45714,3.69,72378.0,-29.71,-60.93,-61.61,0,*62
1483751125.3,45715,3.75,72378.5,-29.73,-61.19,-61.69,0,*6A
1483751126.58,45716,3.69,72374.8,-29.73,-60.93,-61.43,0,*62
1483751127.83,45717,3.75,72378.0,-29.71,-60.93,-61.43,0,*61
1483751129.08,45718,3.69,72378.8,-29.71,-61.19,-61.69,0,*65
1483751130.39,45719,3.75,72382.8,-29.73,-60.93,-61.61,0,*6D
1483751131.62,45720,3.69,72384.8,-29.71,-61.35,-61.69,0,*60
1483751132.93,45721,3.75,72388.8,-29.73,-61.19,-61.61,0,*65
1483751134.21,45722,3.75,72374.8,-29.73,-60.93,-61.35,0,*64
1483751135.46,45723,3.75,72372.8,-29.71,-61.19,-61.69,0,*6D
1483751136.74,45724,3.69,72368.8,-29.71,-61.19,-61.61,0,*62
1483751137.99,45725,3.75,72372.8,-29.71,-61.19,-61.69,0,*6B
1483751139.25,45726,3.75,72376.5,-29.73,-61.35,-61.69,0,*64
1483751140.53,45727,3.75,72378.5,-29.71,-60.93,-61.61,0,*62
1483751141.8,45728,3.69,72378.8,-29.71,-61.11,-61.61,0,*66
1483751143.06,45729,3.75,72382.3,-29.73,-61.35,-61.85,0,*69
1483751144.29,45730,3.75,72382.0,-29.71,-61.35,-61.69,0,*61
1483751145.6,45731,3.75,72380.3,-29.73,-61.19,-61.61,0,*64
1483751146.88,45732,3.69,72368.0,-29.73,-61.11,-61.35,0,*6E
1483751148.13,45733,3.69,72370.8,-29.71,-60.93,-61.43,0,*67
1483751149.39,45734,3.75,72374.3,-29.73,-61.35,-61.69,0,*67
1483751150.65,45735,3.69,72368.8,-29.73,-61.43,-61.69,0,*67
1483751151.93,45736,3.75,72372.5,-29.73,-61.11,-61.43,0,*6B
1483751153.21,45737,3.75,72380.0,-29.73,-61.11,-61.43,0,*6A
1483751154.44,45738,3.75,72382.0,-29.71,-61.35,-61.69,0,*69
1483751155.72,45739,3.75,72374.8,-29.73,-61.19,-61.43,0,*6C
1483751157.0,45740,3.75,72382.3,-29.73,-61.35,-61.61,0,*6C
1483751158.28,45741,3.69,72376.3,-29.71,-61.19,-61.61,0,*61
1483751159.53,45742,3.75,72378.5,-29.71,-61.19,-61.69,0,*6A
1483751160.79,45743,3.69,72376.0,-29.73,-61.43,-61.69,0,*66
1483751162.08,45744,3.75,72374.5,-29.73,-61.61,-61.85,0,*63
1483751163.39,45745,3.75,72368.5,-29.73,-61.61,-61.95,0,*63
1483751164.62,45746,3.75,72372.8,-29.71,-61.43,-61.85,0,*63
1483751165.93,45747,3.69,72390.8,-29.73,-60.93,-61.61,0,*66
1483751167.18,45748,3.69,72372.5,-29.71,-61.11,-61.69,0,*68
1483751168.49,45749,3.75,72362.0,-29.73,-60.85,-61.19,0,*60
1483751169.77,45750,3.75,72358.3,-29.71,-60.61,-60.93,0,*63
1483751171.07,45751,3.75,72362.5,-29.73,-60.69,-61.19,0,*6B
1483751172.32,45752,3.75,72364.3,-29.71,-60.69,-61.35,0,*64
1483751173.62,45753,3.75,72378.3,-29.73,-60.85,-61.19,0,*6B
1483751174.9,45754,3.75,72376.0,-29.73,-60.93,-61.35,0,*65
1483751176.15,45755,3.75,72364.3,-29.71,-60.93,-61.35,0,*66
1483751177.43,45756,3.75,72380.5,-29.73,-61.11,-61.35,0,*6C
1483751178.71,45757,3.75,72382.8,-29.71,-61.19,-61.61,0,*66
1483751179.96,45758,3.75,72388.0,-29.71,-60.93,-61.43,0,*6A
1483751181.21,45759,3.75,72388.3,-29.71,-61.11,-61.35,0,*61
1483751182.49,45760,3.75,72382.0,-29.71,-61.19,-61.61,0,*62
1483751183.74,45761,3.75,72370.0,-29.71,-61.19,-61.69,0,*6B
1483751184.99,45762,3.75,72372.5,-29.71,-61.11,-61.43,0,*68
1483751186.27,45763,3.75,72368.5,-29.71,-61.11,-61.61,0,*69
1483751187.5,45764,3.75,72366.5,-29.71,-61.35,-61.85,0,*62
1483751188.76,45765,3.75,72382.8,-29.73,-61.35,-61.69,0,*63
1483751190.02,45766,3.69,72384.8,-29.71,-61.43,-61.61,0,*6B
1483751191.27,45767,3.69,72376.0,-29.71,-61.19,-61.69,0,*6D
1483751192.51,45768,3.75,72376.3,-29.71,-61.43,-61.85,0,*6F
1483751193.77,45769,3.75,72378.8,-29.73,-61.43,-61.69,0,*6E
1483751195.02,45770,3.75,72370.8,-29.71,-61.19,-61.69,0,*6B
1483751196.28,45771,3.69,72370.8,-29.73,-61.43,-61.85,0,*65
1483751197.51,45772,3.69,72368.5,-29.71,-61.35,-61.69,0,*67
1483751198.75,45773,3.69,72360.3,-29.71,-61.43,-61.69,0,*67
1483751200.03,45774,3.69,72372.3,-29.73,-61.43,-61.95,0,*61
1483751201.31,45775,3.69,72366.5,-29.71,-61.61,-61.95,0,*62
1483751202.59,45776,3.75,72368.0,-29.73,-61.43,-61.95,0,*63
1483751203.9,45777,3.75,72372.0,-29.73,-61.61,-61.95,0,*62
1483751205.18,45778,3.69,72382.3,-29.73,-61.19,-61.69,0,*61
1483751206.49,45779,3.69,72382.8,-29.73,-61.11,-61.61,0,*60
1483751207.77,45780,3.75,72380.8,-29.73,-60.93,-61.35,0,*6C
1483751209.05,45781,3.75,72366.8,-29.73,-61.11,-61.43,0,*67
1483751210.3,45782,3.69,72368.3,-29.75,-61.03,-61.43,0,*61
1483751211.61,45783,3.69,72364.0,-29.73,-61.11,-61.61,0,*65
1483751212.92,45784,3.69,72364.5,-29.73,-61.19,-61.61,0,*6A
1483751214.17,45785,3.69,72362.8,-29.73,-61.35,-61.69,0,*6D
1483751215.45,45786,3.75,72380.5,-29.73,-60.93,-61.35,0,*6A
1483751216.71,45787,3.69,72370.0,-29.71,-60.85,-61.35,0,*6E
1483751217.96,45788,3.69,72370.8,-29.71,-61.19,-61.69,0,*6C
1483751219.24,45789,3.69,72374.0,-29.73,-61.11,-61.43,0,*6F
1483751220.52,45790,3.69,72372.8,-29.71,-61.11,-61.61,0,*65
1483751221.78,45791,3.75,72366.8,-29.73,-61.35,-61.69,0,*68
1483751223.08,45792,3.69,72370.0,-29.73,-61.11,-61.61,0,*65
1483751224.33,45793,3.69,72370.8,-29.71,-60.93,-61.43,0,*6D
1483751225.61,45794,3.75,72372.3,-29.71,-61.19,-61.61,0,*69
1483751226.89,45795,3.69,72370.5,-29.73,-61.11,-61.43,0,*62
1483751228.15,45796,3.75,72376.8,-29.73,-61.35,-61.85,0,*6D
1483751229.43,45797,3.75,72378.8,-29.71,-61.19,-61.61,0,*6A
1483751230.71,45798,3.75,72386.8,-29.71,-61.11,-61.61,0,*6D
1483751231.94,45799,3.75,72368.3,-29.71,-61.35,-61.69,0,*62
1483751233.24,45800,3.75,72374.0,-29.73,-61.11,-61.61,0,*61
1483751234.52,45801,3.69,72384.8,-29.71,-61.11,-61.61,0,*62
1483751235.78,45802,3.69,72386.8,-29.71,-61.19,-61.69,0,*61
1483751237.03,45803,3.75,72384.0,-29.73,-61.35,-61.85,0,*6E
1483751238.31,45804,3.75,72382.0,-29.73,-61.11,-61.69,0,*6D
1483751239.57,45805,3.75,72368.5,-29.73,-61.35,-61.69,0,*6A
1483751240.88,45806,3.75,72372.0,-29.73,-61.11,-61.61,0,*67
1483751242.16,45807,3.75,72370.5,-29.73,-60.93,-61.43,0,*6D
1483751243.43,45808,3.69,72374.8,-29.73,-61.11,-61.43,0,*69
1483751244.69,45809,3.75,72376.8,-29.71,-61.19,-61.69,0,*6A
1483751245.97,45810,3.69,72370.8,-29.71,-61.19,-61.61,0,*6A
1483751247.25,45811,3.69,72360.5,-29.73,-61.35,-61.61,0,*67
1483751248.53,45812,3.69,72374.8,-29.73,-61.35,-61.61,0,*64
1483751249.81,45813,3.69,72374.3,-29.73,-61.11,-61.43,0,*63
1483751251.07,45814,3.69,72368.8,-29.73,-61.35,-61.69,0,*6A
1483751252.33,45815,3.75,72384.0,-29.75,-61.27,-61.69,0,*6E
1483751253.56,45816,3.75,72384.3,-29.75,-61.43,-61.77,0,*60
1483751254.84,45817,3.69,72372.3,-29.73,-61.11,-61.69,0,*6F
1483751256.12,45818,3.69,72378.5,-29.73,-61.35,-61.61,0,*6E
1483751257.38,45819,3.69,72382.5,-29.73,-61.35,-61.85,0,*65
1483751258.69,45820,3.69,72376.5,-29.73,-61.19,-61.61,0,*6B
1483751259.95,45821,3.75,72372.5,-29.73,-61.35,-61.85,0,*6E
1483751261.2,45822,3.75,72384.0,-29.75,-61.27,-61.69,0,*6A
1483751262.48,45823,3.75,72384.8,-29.73,-61.19,-61.69,0,*60
1483751263.75,45824,3.69,72382.8,-29.75,-61.43,-61.95,0,*6D
1483751265.01,45825,3.75,72386.5,-29.75,-61.43,-62.03,0,*60
1483751266.26,45826,3.75,72398.3,-29.73,-61.35,-61.85,0,*69
1483751267.52,45827,3.69,72394.5,-29.75,-61.27,-61.77,0,*60
1483751268.75,45828,3.75,72376.0,-29.75,-61.43,-61.77,0,*6D
1483751270.03,45829,3.75,72374.3,-29.75,-61.03,-61.53,0,*6E
1483751271.28,45830,3.69,72382.5,-29.75,-61.03,-61.43,0,*67
1483751272.59,45831,3.75,72370.0,-29.73,-61.11,-61.61,0,*63
1483751273.88,45832,3.75,72386.3,-29.73,-60.85,-61.35,0,*6D
1483751275.16,45833,3.75,72380.3,-29.73,-60.85,-61.43,0,*6D
1483751276.47,45834,3.69,72370.0,-29.73,-61.11,-61.61,0,*66
1483751277.76,45835,3.69,72400.5,-29.73,-60.69,-61.19,0,*66
1483751279.06,45836,3.75,72380.5,-29.73,-60.93,-61.19,0,*60
1483751280.35,45837,3.75,72376.3,-29.71,-60.61,-60.53,0,*61
1483751281.66,45838,3.69,72368.0,-29.73,-60.37,-60.61,0,*6E
1483751282.93,45839,3.69,72380.0,-29.71,-60.85,-61.19,0,*6A
1483751284.19,45840,3.75,72384.3,-29.71,-61.11,-61.43,0,*67
1483751285.47,45841,3.69,72380.5,-29.73,-60.85,-61.35,0,*69
1483751286.72,45842,3.75,72380.8,-29.71,-60.93,-61.43,0,*6E
1483751288.0,45843,3.75,72386.8,-29.71,-60.85,-61.19,0,*67
1483751289.25,45844,3.75,72388.0,-29.71,-60.69,-61.35,0,*6C
1483751290.5,45845,3.69,72380.0,-29.71,-61.11,-61.35,0,*63
1483751291.75,45846,3.75,72384.5,-29.71,-61.19,-61.69,0,*61
1483751293.0,45847,3.69,72376.0,-29.71,-61.19,-61.43,0,*68
1483751294.28,45848,3.69,72378.8,-29.71,-61.19,-61.61,0,*67
1483751295.53,45849,3.69,72386.3,-29.71,-61.11,-61.43,0,*6E
1483751296.78,45850,3.69,72380.5,-29.71,-60.93,-61.35,0,*6C
1483751298.03,45851,3.69,72384.3,-29.71,-61.11,-61.35,0,*66
1483751299.28,45852,3.69,72388.3,-29.71,-61.11,-61.43,0,*64
1483751300.56,45853,3.69,72386.3,-29.73,-60.93,-61.43,0,*6C
1483751301.81,45854,3.75,72386.3,-29.71,-60.93,-61.35,0,*68
1483751303.06,45855,3.69,72378.8,-29.71,-61.11,-61.35,0,*62
1483751304.35,45856,3.69,72382.5,-29.65,-60.85,-61.35,0,*68
1483751305.63,45857,3.69,72374.8,-29.65,-60.85,-61.35,0,*69
1483751306.92,45858,3.69,72396.0,-29.65,-61.03,-61.27,0,*6A
1483751308.2,45859,3.69,72382.5,-29.65,-61.03,-61.35,0,*68